Погода в Риге

Россия / Кировская область     58°26′08″N   47°46′21″E
темп.,
°C
ветер,
м/с
пор.,
м/с
влажн.,
%
обл.,
%
осадки,
мм/ч
давл.,
гПа
погр.,
м
25 июня, сб
сб2500:00+16сз397281 0.0 1012193
03:00+12сз39930 0.0 1013206
06:00+16сз411760 0.0 1013428
09:00+21ссз611500 0.0 10131894
12:00+22ссз610410 0.0 10132095
15:00+23ссз69395 0.0 10132390
18:00+21ссз510500 0.0 10141517
21:00+14ссз311640 0.0 1015296
26 июня, вс
вс2600:00+12с311690 0.0 1017343
03:00+9сз35783 0.0 101889
06:00+13ссз411650 0.0 1019509
09:00+17ссз611441 0.0 10191427
12:00+20ссз610365 0.0 10191734
15:00+21ссз69375 0.0 10181844
18:00+20ссз37525 0.0 1018772
21:00+14з11725 0.0 101711
27 июня, пн
пн2700:00+13юз247641 0.0 101658
03:00+14зюз31078100 0.1 1014250
06:00+17з410905 0.2 1012352
09:00+22ссз7116471 0.3 10121509
12:00+19с710488 0.2 10141402
15:00+17с694840 0.2 10171392
18:00+17с585187 0.0 10171500
21:00+12с39625 0.0 1018324
28 июня, вт
вт2800:00+8ссв3875100 0.0 1020247
03:00+6с410745 0.0 1021478
06:00+7с59698 0.0 1022804
09:00+11с58495 0.0 10221445
12:00+15с68385 0.0 10211765
15:00+17с68375 0.0 10202017
18:00+16с494621 0.0 10211701
21:00+10ссз38625 0.0 1022153
29 июня, ср
ср2900:00+8ссз311635 0.0 1022214
03:00+6ссз35725 0.0 102387
06:00+11с39570 0.0 1023292
09:00+16с583874 0.0 10231181
12:00+18с5731100 0.0 10221471
15:00+20ссз5733100 0.0 10201641
18:00+18сз48465 0.0 10191078
21:00+12зсз3106688 0.0 1018190